Time,TemperatureF,DewpointF,PressureIn,WindDirection,WindDirectionDegrees,WindSpeedMPH,WindSpeedGustMPH,Humidity,HourlyPrecipIn,Conditions,Clouds,dailyrainin,SolarRadiationWatts/m^2,SoftwareType,DateUTC
2013-09-30 00:00:00,62.8,59.2,30.06,SSW,202,2.3,2.3,88,0.00,CLR,,0.00,0.0,WeatherDisplay:10.37,2013-09-30 04:00:00,
2013-09-30 00:01:00,62.8,59.2,30.06,SSW,202,1.2,0.0,88,0.00,CLR,,0.00,0.0,WeatherDisplay:10.37,2013-09-30 04:01:00,
2013-09-30 00:02:00,62.8,59.2,30.06,SSE,158,2.3,2.3,88,0.00,CLR,,0.00,0.0,WeatherDisplay:10.37,2013-09-30 04:02:00,
2013-09-30 00:07:00,62.6,59.0,30.06,SSW,202,1.2,1.2,88,0.00,CLR,,0.00,0.0,WeatherDisplay:10.37,2013-09-30 04:07:00,
2013-09-30 00:12:00,62.6,59.0,30.06,SSW,202,1.6,1.6,88,0.00,CLR,,0.00,0.0,WeatherDisplay:10.37,2013-09-30 04:12:00,
2013-09-30 00:17:00,62.6,59.3,30.06,SSW,202,1.2,1.4,89,0.00,CLR,,0.00,0.0,WeatherDisplay:10.37,2013-09-30 04:17:00,
2013-09-30 00:22:00,62.4,59.1,30.06,SSW,202,0.0,0.0,89,0.00,CLR,,0.00,0.0,WeatherDisplay:10.37,2013-09-30 04:22:00,
2013-09-30 00:27:00,62.2,59.3,30.06,SSE,158,3.5,3.5,90,0.00,CLR,,0.00,0.0,WeatherDisplay:10.37,2013-09-30 04:27:00,
2013-09-30 00:32:00,62.2,59.3,30.06,SSE,158,3.5,3.5,90,0.00,CLR,,0.00,0.0,WeatherDisplay:10.37,2013-09-30 04:32:00,
2013-09-30 00:37:00,62.1,59.1,30.06,SSW,202,2.3,2.4,90,0.00,CLR,,0.00,0.0,WeatherDisplay:10.37,2013-09-30 04:37:00,
2013-09-30 00:43:00,61.9,58.9,30.06,South,180,2.3,2.3,90,0.00,CLR,,0.00,0.0,WeatherDisplay:10.37,2013-09-30 04:43:00,
2013-09-30 00:48:00,61.9,59.2,30.06,WNW,292,2.3,2.4,91,0.00,CLR,,0.00,0.0,WeatherDisplay:10.37,2013-09-30 04:48:00,
2013-09-30 00:53:00,61.9,58.9,30.06,SSE,158,2.0,2.0,90,0.00,CLR,,0.00,0.0,WeatherDisplay:10.37,2013-09-30 04:53:00,
2013-09-30 00:58:00,61.9,58.9,30.06,SSW,202,1.2,0.0,90,0.00,CLR,,0.00,0.0,WeatherDisplay:10.37,2013-09-30 04:58:00,
2013-09-30 01:03:00,61.9,58.9,30.06,SW,225,0.0,0.0,90,0.00,CLR,,0.00,0.0,WeatherDisplay:10.37,2013-09-30 05:03:00,
2013-09-30 01:08:00,61.9,58.9,30.06,South,180,2.3,2.3,90,0.00,CLR,,0.00,0.0,WeatherDisplay:10.37,2013-09-30 05:08:00,
2013-09-30 01:13:00,61.7,58.7,30.06,SSW,202,2.3,2.3,90,0.00,CLR,,0.00,0.0,WeatherDisplay:10.37,2013-09-30 05:13:00,
2013-09-30 01:18:00,61.7,58.7,30.06,SSE,158,0.0,0.0,90,0.00,CLR,,0.00,0.0,WeatherDisplay:10.37,2013-09-30 05:18:00,
2013-09-30 01:23:00,61.7,58.7,30.06,WSW,248,3.5,3.5,90,0.00,CLR,,0.00,0.0,WeatherDisplay:10.37,2013-09-30 05:23:00,
2013-09-30 01:28:00,61.7,59.0,30.06,SSW,202,3.3,3.3,91,0.00,CLR,,0.00,0.0,WeatherDisplay:10.37,2013-09-30 05:28:00,
2013-09-30 01:33:00,61.7,59.0,30.06,WNW,292,2.4,0.0,91,0.00,CLR,,0.00,0.0,WeatherDisplay:10.37,2013-09-30 05:33:00,
2013-09-30 01:38:00,61.7,59.0,30.06,WNW,292,2.6,2.6,91,0.00,CLR,,0.00,0.0,WeatherDisplay:10.37,2013-09-30 05:38:00,
2013-09-30 01:43:00,61.7,59.0,30.06,WNW,292,4.6,4.6,91,0.00,CLR,,0.00,0.0,WeatherDisplay:10.37,2013-09-30 05:43:00,
2013-09-30 01:48:00,61.7,59.0,30.06,SSW,202,3.5,3.5,91,0.00,CLR,,0.00,0.0,WeatherDisplay:10.37,2013-09-30 05:48:00,
2013-09-30 01:53:00,61.7,59.0,30.06,WSW,248,2.3,0.0,91,0.00,CLR,,0.00,0.0,WeatherDisplay:10.37,2013-09-30 05:53:00,
2013-09-30 01:58:00,61.7,59.0,30.06,WSW,248,3.5,3.5,91,0.00,CLR,,0.00,0.0,WeatherDisplay:10.37,2013-09-30 05:58:00,
2013-09-30 02:03:00,61.7,59.0,30.06,SSW,202,3.5,0.0,91,0.00,CLR,,0.00,0.0,WeatherDisplay:10.37,2013-09-30 06:03:00,
2013-09-30 02:08:00,61.7,59.0,30.06,SSW,202,2.3,2.3,91,0.00,CLR,,0.00,0.0,WeatherDisplay:10.37,2013-09-30 06:08:00,
2013-09-30 02:13:00,61.5,59.2,30.06,SW,225,3.5,3.5,92,0.00,CLR,,0.00,0.0,WeatherDisplay:10.37,2013-09-30 06:13:00,
2013-09-30 02:18:00,61.3,59.0,30.06,SSW,202,2.4,2.4,92,0.00,CLR,,0.00,0.0,WeatherDisplay:10.37,2013-09-30 06:18:00,
2013-09-30 02:23:00,61.2,58.8,30.06,WNW,292,2.3,2.3,92,0.00,CLR,,0.00,0.0,WeatherDisplay:10.37,2013-09-30 06:23:00,
2013-09-30 02:28:00,61.2,58.8,30.06,SW,225,2.9,2.9,92,0.00,CLR,,0.00,0.0,WeatherDisplay:10.37,2013-09-30 06:28:00,
2013-09-30 02:33:00,61.2,59.1,30.06,WSW,248,3.5,3.5,93,0.00,CLR,,0.00,0.0,WeatherDisplay:10.37,2013-09-30 06:33:00,
2013-09-30 02:38:00,61.2,59.1,30.03,WNW,292,2.3,2.3,93,0.00,CLR,,0.00,0.0,WeatherDisplay:10.37,2013-09-30 06:38:00,
2013-09-30 02:43:00,61.2,59.1,30.03,SSW,202,3.5,3.5,93,0.00,CLR,,0.00,0.0,WeatherDisplay:10.37,2013-09-30 06:43:00,
2013-09-30 02:48:00,61.2,59.1,30.03,SSW,202,2.3,2.3,93,0.00,CLR,,0.00,0.0,WeatherDisplay:10.37,2013-09-30 06:48:00,
2013-09-30 02:53:00,61.2,59.1,30.06,WSW,248,2.4,2.4,93,0.00,CLR,,0.00,0.0,WeatherDisplay:10.37,2013-09-30 06:53:00,
2013-09-30 02:58:00,61.0,58.6,30.06,SSE,158,0.0,0.0,92,0.00,CLR,,0.00,0.0,WeatherDisplay:10.37,2013-09-30 06:58:00,
2013-09-30 03:03:00,61.0,58.6,30.06,SSE,158,0.0,0.0,92,0.00,CLR,,0.00,0.0,WeatherDisplay:10.37,2013-09-30 07:03:00,
2013-09-30 03:08:00,61.0,58.6,30.06,SSW,202,1.4,1.4,92,0.00,CLR,,0.00,0.0,WeatherDisplay:10.37,2013-09-30 07:08:00,
2013-09-30 03:13:00,61.0,58.9,30.06,SSW,202,1.2,1.2,93,0.00,CLR,,0.00,0.0,WeatherDisplay:10.37,2013-09-30 07:13:00,
2013-09-30 03:18:00,61.0,58.9,30.06,South,180,2.3,2.3,93,0.00,CLR,,0.00,0.0,WeatherDisplay:10.37,2013-09-30 07:18:00,
2013-09-30 03:23:00,61.0,58.9,30.03,SSW,202,2.3,2.3,93,0.00,CLR,,0.00,0.0,WeatherDisplay:10.37,2013-09-30 07:23:00,
2013-09-30 03:28:00,60.8,58.8,30.03,SSW,202,0.0,0.0,93,0.00,CLR,,0.00,0.0,WeatherDisplay:10.37,2013-09-30 07:28:00,
2013-09-30 03:33:00,60.8,58.8,30.03,SSE,158,0.0,0.0,93,0.00,CLR,,0.00,0.0,WeatherDisplay:10.37,2013-09-30 07:33:00,
2013-09-30 03:38:00,60.8,58.8,30.03,SSW,202,2.3,2.3,93,0.00,CLR,,0.00,0.0,WeatherDisplay:10.37,2013-09-30 07:38:00,
2013-09-30 03:43:00,60.8,58.8,30.03,SSE,158,1.2,1.2,93,0.00,CLR,,0.00,0.0,WeatherDisplay:10.37,2013-09-30 07:43:00,
2013-09-30 03:48:00,60.8,58.8,30.03,SSW,202,2.3,2.3,93,0.00,CLR,,0.00,0.0,WeatherDisplay:10.37,2013-09-30 07:48:00,
2013-09-30 03:53:00,60.8,58.8,30.03,SSW,202,2.6,2.6,93,0.00,CLR,,0.00,0.0,WeatherDisplay:10.37,2013-09-30 07:53:00,
2013-09-30 03:58:00,60.8,58.8,30.03,SSW,202,2.3,2.3,93,0.00,CLR,,0.00,0.0,WeatherDisplay:10.37,2013-09-30 07:58:00,
2013-09-30 04:03:00,60.8,58.8,30.03,SSW,202,2.3,2.3,93,0.00,CLR,,0.00,0.0,WeatherDisplay:10.37,2013-09-30 08:03:00,
2013-09-30 04:08:00,60.8,58.8,30.03,SSE,158,2.3,2.3,93,0.00,CLR,,0.00,0.0,WeatherDisplay:10.37,2013-09-30 08:08:00,
2013-09-30 04:13:00,60.6,58.9,30.03,SSE,158,1.4,1.4,94,0.00,CLR,,0.00,0.0,WeatherDisplay:10.37,2013-09-30 08:13:00,
2013-09-30 04:19:00,60.6,58.6,30.03,SSW,202,1.2,1.2,93,0.00,CLR,,0.00,0.0,WeatherDisplay:10.37,2013-09-30 08:19:00,
2013-09-30 04:24:00,60.4,58.4,30.03,SSE,158,2.0,0.0,93,0.00,CLR,,0.00,0.0,WeatherDisplay:10.37,2013-09-30 08:24:00,
2013-09-30 04:29:00,60.4,58.4,30.03,SSE,158,2.3,0.0,93,0.00,CLR,,0.00,0.0,WeatherDisplay:10.37,2013-09-30 08:29:00,
2013-09-30 04:34:00,60.4,58.7,30.03,SSE,158,0.0,0.0,94,0.00,CLR,,0.00,0.0,WeatherDisplay:10.37,2013-09-30 08:34:00,
2013-09-30 04:39:00,60.4,58.7,30.06,ESE,112,2.3,0.0,94,0.00,CLR,,0.00,0.0,WeatherDisplay:10.37,2013-09-30 08:39:00,
2013-09-30 04:44:00,60.3,58.5,30.06,SSE,158,2.3,2.3,94,0.00,CLR,,0.00,0.0,WeatherDisplay:10.37,2013-09-30 08:44:00,
2013-09-30 04:49:00,60.4,58.7,30.06,SSE,158,2.3,2.3,94,0.00,CLR,,0.00,0.0,WeatherDisplay:10.37,2013-09-30 08:49:00,
2013-09-30 04:54:00,60.4,58.7,30.03,SSE,158,1.2,0.0,94,0.00,CLR,,0.00,0.0,WeatherDisplay:10.37,2013-09-30 08:54:00,
2013-09-30 04:59:00,60.4,58.7,30.03,SSW,202,2.3,2.3,94,0.00,CLR,,0.00,0.0,WeatherDisplay:10.37,2013-09-30 08:59:00,
2013-09-30 05:04:00,60.4,58.7,30.03,WSW,248,1.4,0.0,94,0.00,CLR,,0.00,0.0,WeatherDisplay:10.37,2013-09-30 09:04:00,
2013-09-30 05:09:00,60.4,58.7,30.03,SSW,202,2.3,2.3,94,0.00,CLR,,0.00,0.0,WeatherDisplay:10.37,2013-09-30 09:09:00,
2013-09-30 05:14:00,60.4,58.7,30.03,SSW,202,2.3,2.3,94,0.00,CLR,,0.00,0.0,WeatherDisplay:10.37,2013-09-30 09:14:00,
2013-09-30 05:19:00,60.4,58.7,30.03,SSW,202,2.4,2.4,94,0.00,CLR,,0.00,0.0,WeatherDisplay:10.37,2013-09-30 09:19:00,
2013-09-30 05:24:00,60.4,58.7,30.03,SSW,202,3.5,3.5,94,0.00,CLR,,0.00,0.0,WeatherDisplay:10.37,2013-09-30 09:24:00,
2013-09-30 05:29:00,60.4,58.7,30.03,SSW,202,2.3,2.3,94,0.00,CLR,,0.00,0.0,WeatherDisplay:10.37,2013-09-30 09:29:00,
2013-09-30 05:34:00,60.6,58.9,30.03,South,180,3.5,3.5,94,0.00,CLR,,0.00,0.0,WeatherDisplay:10.37,2013-09-30 09:34:00,
2013-09-30 05:39:00,60.6,58.9,30.03,NNW,338,3.5,3.5,94,0.00,CLR,,0.00,0.0,WeatherDisplay:10.37,2013-09-30 09:39:00,
2013-09-30 05:44:00,60.6,58.9,30.03,WNW,292,2.6,2.6,94,0.00,CLR,,0.00,0.0,WeatherDisplay:10.37,2013-09-30 09:44:00,
2013-09-30 05:49:00,60.6,58.9,30.03,WNW,292,2.3,2.3,94,0.00,CLR,,0.00,0.0,WeatherDisplay:10.37,2013-09-30 09:49:00,
2013-09-30 05:54:00,60.6,58.9,30.03,SSW,202,2.4,2.4,94,0.00,CLR,,0.00,0.0,WeatherDisplay:10.37,2013-09-30 09:54:00,
2013-09-30 05:59:00,60.6,58.6,30.03,SSW,202,2.3,2.3,93,0.00,CLR,,0.00,0.0,WeatherDisplay:10.37,2013-09-30 09:59:00,
2013-09-30 06:04:00,60.6,58.6,30.03,SSW,202,2.3,2.3,93,0.00,CLR,,0.00,0.0,WeatherDisplay:10.37,2013-09-30 10:04:00,
2013-09-30 06:09:00,60.6,58.9,30.03,WNW,292,4.6,4.6,94,0.00,CLR,,0.00,0.0,WeatherDisplay:10.37,2013-09-30 10:09:00,
2013-09-30 06:14:00,60.6,58.9,30.03,WSW,248,4.6,4.6,94,0.00,CLR,,0.00,0.0,WeatherDisplay:10.37,2013-09-30 10:14:00,
2013-09-30 06:19:00,60.6,58.9,30.03,ESE,112,2.3,2.3,94,0.00,CLR,,0.00,0.0,WeatherDisplay:10.37,2013-09-30 10:19:00,
2013-09-30 06:24:00,60.6,58.9,30.06,SSW,202,3.1,3.1,94,0.00,CLR,,0.00,0.0,WeatherDisplay:10.37,2013-09-30 10:24:00,
2013-09-30 06:29:00,60.6,58.9,30.06,WSW,248,4.6,4.6,94,0.00,CLR,,0.00,0.0,WeatherDisplay:10.37,2013-09-30 10:29:00,
2013-09-30 06:34:00,60.6,58.9,30.06,SSW,202,3.5,3.5,94,0.00,CLR,,0.00,0.0,WeatherDisplay:10.37,2013-09-30 10:34:00,
2013-09-30 06:39:00,60.6,58.9,30.03,SSW,202,1.6,1.6,94,0.00,CLR,,0.00,0.0,WeatherDisplay:10.37,2013-09-30 10:39:00,
2013-09-30 06:44:00,60.6,58.6,30.03,South,180,4.6,4.6,93,0.00,CLR,,0.00,0.0,WeatherDisplay:10.37,2013-09-30 10:44:00,
2013-09-30 06:49:00,60.8,58.8,30.03,SSW,202,3.6,3.6,93,0.00,CLR,,0.00,0.0,WeatherDisplay:10.37,2013-09-30 10:49:00,
2013-09-30 06:54:00,60.8,58.5,30.06,South,180,3.5,3.5,92,0.00,CLR,,0.00,0.0,WeatherDisplay:10.37,2013-09-30 10:54:00,
2013-09-30 06:59:00,60.8,58.5,30.06,WSW,248,2.6,2.6,92,0.00,CLR,,0.00,0.0,WeatherDisplay:10.37,2013-09-30 10:59:00,
2013-09-30 07:04:00,60.8,58.5,30.06,SSW,202,2.4,2.4,92,0.00,CLR,,0.00,0.0,WeatherDisplay:10.37,2013-09-30 11:04:00,
2013-09-30 07:09:00,60.8,58.5,30.03,SSW,202,2.3,2.3,92,0.00,CLR,,0.00,0.0,WeatherDisplay:10.37,2013-09-30 11:09:00,
2013-09-30 07:14:00,61.0,58.6,30.03,SSW,202,2.6,2.6,92,0.00,CLR,,0.00,0.0,WeatherDisplay:10.37,2013-09-30 11:14:00,
2013-09-30 07:19:00,61.0,58.6,30.03,SSW,202,3.5,3.5,92,0.00,CLR,,0.00,0.0,WeatherDisplay:10.37,2013-09-30 11:19:00,
2013-09-30 07:24:00,61.0,58.6,30.03,WSW,248,2.4,2.4,92,0.00,CLR,,0.00,0.0,WeatherDisplay:10.37,2013-09-30 11:24:00,
2013-09-30 07:29:00,60.8,58.5,30.03,SSW,202,3.5,3.5,92,0.00,CLR,,0.00,0.0,WeatherDisplay:10.37,2013-09-30 11:29:00,
2013-09-30 07:34:00,60.8,58.5,30.03,SSE,158,3.5,3.5,92,0.00,CLR,,0.00,0.0,WeatherDisplay:10.37,2013-09-30 11:34:00,
2013-09-30 07:39:00,60.8,58.5,30.06,SSW,202,2.3,2.3,92,0.00,CLR,,0.00,0.0,WeatherDisplay:10.37,2013-09-30 11:39:00,
2013-09-30 07:44:00,60.8,58.5,30.06,SSW,202,3.5,3.5,92,0.00,CLR,,0.00,0.0,WeatherDisplay:10.37,2013-09-30 11:44:00,
2013-09-30 07:49:00,60.8,58.5,30.06,South,180,4.6,4.6,92,0.00,CLR,,0.00,0.0,WeatherDisplay:10.37,2013-09-30 11:49:00,
2013-09-30 07:54:00,60.8,58.5,30.06,SSW,202,1.2,1.2,92,0.00,CLR,,0.00,0.0,WeatherDisplay:10.37,2013-09-30 11:54:00,
2013-09-30 07:59:00,60.8,58.5,30.06,SSW,202,2.3,2.3,92,0.00,CLR,,0.00,0.0,WeatherDisplay:10.37,2013-09-30 11:59:00,
2013-09-30 08:05:00,60.8,58.5,30.06,SSW,202,2.3,2.3,92,0.00,CLR,,0.00,0.0,WeatherDisplay:10.37,2013-09-30 12:05:00,
2013-09-30 08:10:00,60.8,58.5,30.06,SSW,202,2.6,2.6,92,0.00,CLR,,0.00,0.0,WeatherDisplay:10.37,2013-09-30 12:10:00,
2013-09-30 08:15:00,60.8,58.5,30.06,SSW,202,2.0,2.0,92,0.00,CLR,,0.00,0.0,WeatherDisplay:10.37,2013-09-30 12:15:00,
2013-09-30 08:20:00,61.0,58.6,30.06,SSW,202,4.6,4.6,92,0.00,CLR,,0.00,0.0,WeatherDisplay:10.37,2013-09-30 12:20:00,
2013-09-30 08:25:00,60.8,58.5,30.06,SSE,158,3.5,3.5,92,0.00,CLR,,0.00,0.0,WeatherDisplay:10.37,2013-09-30 12:25:00,
2013-09-30 08:30:00,61.0,58.6,30.06,South,180,2.3,2.3,92,0.00,CLR,,0.00,0.0,WeatherDisplay:10.37,2013-09-30 12:30:00,
2013-09-30 08:35:00,61.0,58.6,30.06,SSW,202,2.3,2.3,92,0.00,CLR,,0.00,0.0,WeatherDisplay:10.37,2013-09-30 12:35:00,
2013-09-30 08:40:00,61.0,58.6,30.06,SSW,202,2.3,2.3,92,0.00,CLR,,0.00,0.0,WeatherDisplay:10.37,2013-09-30 12:40:00,
2013-09-30 08:45:00,61.0,58.6,30.06,SSW,202,3.5,3.5,92,0.00,CLR,,0.00,0.0,WeatherDisplay:10.37,2013-09-30 12:45:00,
2013-09-30 08:50:00,61.0,58.6,30.06,South,180,3.5,3.5,92,0.00,CLR,,0.00,0.0,WeatherDisplay:10.37,2013-09-30 12:50:00,
2013-09-30 08:55:00,61.0,58.6,30.06,South,187,2.0,6.0,92,0.00,CLR,,0.00,0.0,WeatherDisplay:10.37,2013-09-30 12:55:00,
2013-09-30 09:00:00,60.8,58.5,30.06,WNW,292,3.5,3.5,92,0.00,CLR,,0.00,0.0,WeatherDisplay:10.37,2013-09-30 13:00:00,
2013-09-30 09:05:00,60.8,58.8,30.06,SSW,204,2.0,5.0,93,0.00,CLR,,0.00,0.0,WeatherDisplay:10.37,2013-09-30 13:05:00,
2013-09-30 09:10:00,60.8,58.8,30.06,SSW,202,4.6,4.6,93,0.00,CLR,,0.00,0.0,WeatherDisplay:10.37,2013-09-30 13:10:00,
2013-09-30 09:15:00,60.8,58.8,30.06,SSW,202,2.4,2.4,93,0.00,CLR,,0.00,0.0,WeatherDisplay:10.37,2013-09-30 13:15:00,
2013-09-30 09:20:00,61.0,58.9,30.06,SW,214,2.0,6.0,93,0.00,CLR,,0.00,0.0,WeatherDisplay:10.37,2013-09-30 13:20:00,
2013-09-30 09:25:00,61.0,58.9,30.06,SSW,195,3.0,6.0,93,0.00,CLR,,0.00,0.0,WeatherDisplay:10.37,2013-09-30 13:25:00,
2013-09-30 09:30:00,61.0,58.9,30.06,WSW,248,5.8,5.8,93,0.00,CLR,,0.00,0.0,WeatherDisplay:10.37,2013-09-30 13:30:00,
2013-09-30 09:35:00,61.0,58.9,30.06,SSW,209,5.0,6.0,93,0.00,CLR,,0.00,0.0,WeatherDisplay:10.37,2013-09-30 13:35:00,
2013-09-30 09:40:00,60.8,58.8,30.06,SSW,203,3.0,6.0,93,0.00,CLR,,0.00,0.0,WeatherDisplay:10.37,2013-09-30 13:40:00,
2013-09-30 09:45:00,60.6,58.9,30.06,SSW,202,5.9,5.9,94,0.00,CLR,,0.00,0.0,WeatherDisplay:10.37,2013-09-30 13:45:00,
2013-09-30 09:50:00,60.4,59.0,30.06,SSW,204,6.0,6.0,95,0.00,CLR,,0.00,0.0,WeatherDisplay:10.37,2013-09-30 13:50:00,
2013-09-30 09:55:00,60.4,59.0,30.06,SSW,202,6.9,6.9,95,0.00,CLR,,0.00,0.0,WeatherDisplay:10.37,2013-09-30 13:55:00,
2013-09-30 10:00:00,60.3,59.1,30.06,WSW,248,5.9,5.9,96,0.00,CLR,,0.00,0.0,WeatherDisplay:10.37,2013-09-30 14:00:00,
2013-09-30 10:05:00,60.3,59.1,30.06,SSW,197,5.0,6.0,96,0.00,CLR,,0.00,0.0,WeatherDisplay:10.37,2013-09-30 14:05:00,
2013-09-30 10:10:00,60.1,58.9,30.06,SSW,202,6.0,6.0,96,0.00,CLR,,0.00,0.0,WeatherDisplay:10.37,2013-09-30 14:10:00,
2013-09-30 10:15:00,60.1,59.2,30.06,SSW,206,3.0,7.0,97,0.00,CLR,,0.00,0.0,WeatherDisplay:10.37,2013-09-30 14:15:00,
2013-09-30 10:20:00,59.9,59.1,30.06,SSW,201,5.0,8.0,97,0.00,CLR,,0.00,0.0,WeatherDisplay:10.37,2013-09-30 14:20:00,
2013-09-30 10:25:00,60.1,59.2,30.06,WSW,248,5.8,5.8,97,0.00,CLR,,0.00,0.0,WeatherDisplay:10.37,2013-09-30 14:25:00,
2013-09-30 10:30:00,59.9,59.0,30.06,SSW,205,3.0,6.0,97,0.00,CLR,,0.00,0.0,WeatherDisplay:10.37,2013-09-30 14:30:00,
2013-09-30 10:35:00,59.9,59.0,30.06,SSW,207,5.0,7.0,97,0.00,CLR,,0.00,0.0,WeatherDisplay:10.37,2013-09-30 14:35:00,
2013-09-30 10:40:00,59.9,59.0,30.06,SSW,202,4.6,4.6,97,0.00,CLR,,0.00,0.0,WeatherDisplay:10.37,2013-09-30 14:40:00,
2013-09-30 10:45:00,60.1,59.2,30.06,SSW,194,3.0,6.0,97,0.00,CLR,,0.00,0.0,WeatherDisplay:10.37,2013-09-30 14:45:00,
2013-09-30 10:50:00,60.1,59.2,30.06,SSW,202,5.8,5.8,97,0.00,CLR,,0.00,0.0,WeatherDisplay:10.37,2013-09-30 14:50:00,
2013-09-30 10:55:00,60.1,59.2,30.06,SSW,202,3.5,3.5,97,0.00,CLR,,0.00,0.0,WeatherDisplay:10.37,2013-09-30 14:55:00,
2013-09-30 11:00:00,60.1,59.2,30.06,SSW,205,3.0,5.0,97,0.00,CLR,,0.00,0.0,WeatherDisplay:10.37,2013-09-30 15:00:00,
2013-09-30 11:05:00,60.1,59.2,30.06,SSW,202,4.6,4.6,97,0.00,CLR,,0.00,0.0,WeatherDisplay:10.37,2013-09-30 15:05:00,
2013-09-30 11:10:00,60.1,59.2,30.06,SSW,206,3.0,6.0,97,0.00,CLR,,0.00,0.0,WeatherDisplay:10.37,2013-09-30 15:10:00,
2013-09-30 11:15:00,60.1,59.2,30.06,SW,214,1.0,4.0,97,0.00,CLR,,0.00,0.0,WeatherDisplay:10.37,2013-09-30 15:15:00,
2013-09-30 11:20:00,60.4,59.6,30.06,South,180,2.3,2.3,97,0.00,CLR,,0.00,0.0,WeatherDisplay:10.37,2013-09-30 15:20:00,
2013-09-30 11:25:00,60.6,59.8,30.06,South,190,2.0,4.0,97,0.00,CLR,,0.00,0.0,WeatherDisplay:10.37,2013-09-30 15:25:00,
2013-09-30 11:30:00,60.6,59.8,30.06,WSW,248,2.6,2.6,97,0.00,CLR,,0.00,0.0,WeatherDisplay:10.37,2013-09-30 15:30:00,
2013-09-30 11:35:00,60.4,59.6,30.06,WNW,292,2.4,2.4,97,0.00,CLR,,0.00,0.0,WeatherDisplay:10.37,2013-09-30 15:35:00,
2013-09-30 11:40:00,60.5,59.7,30.06,SW,215,1.0,4.0,97,0.00,CLR,,0.00,0.0,WeatherDisplay:10.37,2013-09-30 15:40:00,
2013-09-30 11:45:00,61.0,59.8,30.06,SSW,202,2.4,2.9,96,0.00,CLR,,0.00,0.0,WeatherDisplay:10.37,2013-09-30 15:45:00,
2013-09-30 11:50:00,61.3,60.2,30.06,SSW,202,2.3,2.3,96,0.00,CLR,,0.00,0.0,WeatherDisplay:10.37,2013-09-30 15:50:00,
2013-09-30 11:55:00,62.7,61.6,30.06,SW,218,1.0,3.0,96,0.00,CLR,,0.00,500.0,WeatherDisplay:10.37,2013-09-30 15:55:00,
2013-09-30 12:00:00,63.1,61.4,30.06,WSW,248,3.5,3.5,94,0.00,CLR,,0.00,600.0,WeatherDisplay:10.37,2013-09-30 16:00:00,
2013-09-30 12:05:00,63.7,61.6,30.06,WSW,240,3.0,6.0,93,0.00,CLR,,0.00,0.0,WeatherDisplay:10.37,2013-09-30 16:05:00,
2013-09-30 12:10:00,63.5,61.1,30.06,West,259,3.0,6.0,92,0.00,CLR,,0.00,0.0,WeatherDisplay:10.37,2013-09-30 16:10:00,
2013-09-30 12:15:00,63.5,60.8,30.06,WSW,248,4.6,4.6,91,0.00,CLR,,0.00,0.0,WeatherDisplay:10.37,2013-09-30 16:15:00,
2013-09-30 12:20:00,63.9,61.5,30.06,WSW,243,2.0,5.0,92,0.00,CLR,,0.00,0.0,WeatherDisplay:10.37,2013-09-30 16:20:00,
2013-09-30 12:25:00,64.0,61.7,30.06,West,264,3.0,5.0,92,0.00,CLR,,0.00,0.0,WeatherDisplay:10.37,2013-09-30 16:25:00,
2013-09-30 12:30:00,64.4,61.7,30.06,SSW,202,2.3,2.3,91,0.00,CLR,,0.00,0.0,WeatherDisplay:10.37,2013-09-30 16:30:00,
2013-09-30 12:35:00,64.4,61.7,30.06,WSW,248,2.3,2.3,91,0.00,CLR,,0.00,100.0,WeatherDisplay:10.37,2013-09-30 16:35:00,
2013-09-30 12:40:00,65.7,62.6,30.06,SW,225,2.4,2.4,90,0.00,CLR,,0.00,200.0,WeatherDisplay:10.37,2013-09-30 16:40:00,
2013-09-30 12:45:00,66.9,62.9,30.06,SSE,158,3.8,3.8,87,0.00,CLR,,0.00,900.0,WeatherDisplay:10.37,2013-09-30 16:45:00,
2013-09-30 12:50:00,67.6,62.9,30.06,SW,217,3.0,5.0,85,0.00,CLR,,0.00,1400.0,WeatherDisplay:10.37,2013-09-30 16:50:00,
2013-09-30 12:55:00,69.6,63.5,30.06,West,261,3.0,6.0,81,0.00,CLR,,0.00,1200.0,WeatherDisplay:10.37,2013-09-30 16:55:00,
2013-09-30 13:00:00,70.7,63.1,30.06,WNW,292,6.4,6.4,77,0.00,CLR,,0.00,1300.0,WeatherDisplay:10.37,2013-09-30 17:00:00,
2013-09-30 13:05:00,71.1,62.8,30.06,West,281,3.0,7.0,75,0.00,CLR,,0.00,1000.0,WeatherDisplay:10.37,2013-09-30 17:05:00,
2013-09-30 13:10:00,70.3,61.7,30.06,WNW,292,5.8,5.8,74,0.00,CLR,,0.00,800.0,WeatherDisplay:10.37,2013-09-30 17:10:00,
2013-09-30 13:15:00,70.0,61.7,30.06,WSW,248,5.8,5.8,75,0.00,CLR,,0.00,800.0,WeatherDisplay:10.37,2013-09-30 17:15:00,
2013-09-30 13:20:00,69.8,61.5,30.06,West,264,5.0,6.0,75,0.00,CLR,,0.00,500.0,WeatherDisplay:10.37,2013-09-30 17:20:00,
2013-09-30 13:25:00,69.1,61.2,30.03,SSW,202,3.5,3.5,76,0.00,CLR,,0.00,0.0,WeatherDisplay:10.37,2013-09-30 17:25:00,
2013-09-30 13:30:00,68.7,61.2,30.03,West,259,2.0,5.0,77,0.00,CLR,,0.00,0.0,WeatherDisplay:10.37,2013-09-30 17:30:00,
2013-09-30 13:35:00,68.0,61.2,30.03,WNW,292,4.6,4.6,79,0.00,CLR,,0.00,0.0,WeatherDisplay:10.37,2013-09-30 17:35:00,
2013-09-30 13:40:00,67.5,61.4,30.03,WSW,248,1.4,2.2,81,0.00,CLR,,0.00,0.0,WeatherDisplay:10.37,2013-09-30 17:40:00,
2013-09-30 13:45:00,67.3,61.6,30.03,WSW,247,2.0,4.0,82,0.00,CLR,,0.00,0.0,WeatherDisplay:10.37,2013-09-30 17:45:00,
2013-09-30 13:50:00,67.1,61.8,30.03,NNW,338,2.4,0.0,83,0.00,CLR,,0.00,0.0,WeatherDisplay:10.37,2013-09-30 17:50:00,
2013-09-30 13:55:00,68.4,62.7,30.03,WNW,287,1.0,3.0,82,0.00,BKN,,0.00,100.0,WeatherDisplay:10.37,2013-09-30 17:55:00,
2013-09-30 14:00:00,70.2,63.7,30.03,WNW,288,1.0,3.0,80,0.00,CLR,,0.00,1300.0,WeatherDisplay:10.37,2013-09-30 18:00:00,
2013-09-30 14:05:00,73.9,65.5,30.03,WNW,292,3.5,3.5,75,0.00,CLR,,0.00,1400.0,WeatherDisplay:10.37,2013-09-30 18:05:00,
2013-09-30 14:10:00,75.2,64.4,30.03,WNW,282,2.0,4.0,69,0.00,CLR,,0.00,1200.0,WeatherDisplay:10.37,2013-09-30 18:10:00,
2013-09-30 14:15:00,75.3,62.3,30.03,SW,228,5.0,7.0,64,0.00,CLR,,0.00,1600.0,WeatherDisplay:10.37,2013-09-30 18:15:00,
2013-09-30 14:20:00,75.9,63.3,30.03,WNW,292,5.6,5.6,65,0.00,CLR,,0.00,700.0,WeatherDisplay:10.37,2013-09-30 18:20:00,
2013-09-30 14:25:00,74.7,60.8,30.03,SSW,205,3.0,6.0,62,0.00,CLR,,0.00,1100.0,WeatherDisplay:10.37,2013-09-30 18:25:00,
2013-09-30 14:30:00,73.6,60.6,30.03,WNW,292,4.6,0.0,64,0.00,BKN,,0.00,100.0,WeatherDisplay:10.37,2013-09-30 18:30:00,
2013-09-30 14:35:00,72.7,59.8,30.03,WNW,292,5.0,6.0,64,0.00,CLR,,0.00,0.0,WeatherDisplay:10.37,2013-09-30 18:35:00,
2013-09-30 14:40:00,71.6,59.6,30.00,West,260,2.0,5.0,66,0.00,CLR,,0.00,0.0,WeatherDisplay:10.37,2013-09-30 18:40:00,
2013-09-30 14:45:00,71.8,60.2,30.00,West,261,2.0,5.0,67,0.00,CLR,,0.00,600.0,WeatherDisplay:10.37,2013-09-30 18:45:00,
2013-09-30 14:50:00,73.2,61.2,30.00,SSE,158,3.5,3.5,66,0.00,CLR,,0.00,1600.0,WeatherDisplay:10.37,2013-09-30 18:50:00,
2013-09-30 14:55:00,74.5,61.5,30.00,NW,308,3.0,5.0,64,0.00,CLR,,0.00,1000.0,WeatherDisplay:10.37,2013-09-30 18:55:00,
2013-09-30 15:00:00,75.1,61.2,30.00,NW,312,3.0,9.0,62,0.00,CLR,,0.00,1300.0,WeatherDisplay:10.37,2013-09-30 19:00:00,
2013-09-30 15:05:00,74.7,60.8,30.00,WNW,290,3.0,8.0,62,0.00,CLR,,0.00,800.0,WeatherDisplay:10.37,2013-09-30 19:05:00,
2013-09-30 15:10:00,73.8,59.9,30.00,West,271,2.0,6.0,62,0.00,BKN,,0.00,200.0,WeatherDisplay:10.37,2013-09-30 19:10:00,
2013-09-30 15:15:00,72.7,59.4,30.00,West,279,3.0,6.0,63,0.00,CLR,,0.00,0.0,WeatherDisplay:10.37,2013-09-30 19:15:00,
2013-09-30 15:20:00,71.4,58.6,30.00,WNW,286,3.0,8.0,64,0.00,CLR,,0.00,0.0,WeatherDisplay:10.37,2013-09-30 19:20:00,
2013-09-30 15:25:00,71.1,59.1,30.00,West,279,3.0,6.0,66,0.00,CLR,,0.00,0.0,WeatherDisplay:10.37,2013-09-30 19:25:00,
2013-09-30 15:30:00,70.5,59.0,30.00,WNW,292,3.8,4.0,67,0.00,CLR,,0.00,0.0,WeatherDisplay:10.37,2013-09-30 19:30:00,
2013-09-30 15:35:00,70.6,59.1,30.00,West,275,2.0,5.0,67,0.00,BKN,,0.00,100.0,WeatherDisplay:10.37,2013-09-30 19:35:00,
2013-09-30 15:40:00,71.2,60.1,30.00,SW,225,2.3,2.4,68,0.00,CLR,,0.00,500.0,WeatherDisplay:10.37,2013-09-30 19:40:00,
2013-09-30 15:45:00,71.1,58.7,30.00,WSW,248,4.6,4.6,65,0.00,BKN,,0.00,0.0,WeatherDisplay:10.37,2013-09-30 19:45:00,
2013-09-30 15:50:00,71.2,59.3,30.00,West,278,2.0,4.0,66,0.00,CLR,,0.00,0.0,WeatherDisplay:10.37,2013-09-30 19:50:00,
2013-09-30 15:55:00,71.2,58.9,30.00,West,279,3.0,6.0,65,0.00,BKN,,0.00,100.0,WeatherDisplay:10.37,2013-09-30 19:55:00,
2013-09-30 16:00:00,71.4,58.6,30.00,West,265,2.0,6.0,64,0.00,BKN,,0.00,100.0,WeatherDisplay:10.37,2013-09-30 20:00:00,
2013-09-30 16:05:00,71.3,58.1,30.00,WSW,258,3.0,7.0,63,0.00,BKN,,0.00,300.0,WeatherDisplay:10.37,2013-09-30 20:05:00,
2013-09-30 16:10:00,71.2,57.5,30.00,WSW,248,5.8,5.8,62,0.00,BKN,,0.00,300.0,WeatherDisplay:10.37,2013-09-30 20:10:00,
2013-09-30 16:15:00,72.1,58.8,30.00,West,279,2.0,7.0,63,0.00,CLR,,0.00,900.0,WeatherDisplay:10.37,2013-09-30 20:15:00,
2013-09-30 16:20:00,75.1,59.8,30.00,WSW,254,5.0,7.0,59,0.00,CLR,,0.00,800.0,WeatherDisplay:10.37,2013-09-30 20:20:00,
2013-09-30 16:25:00,76.1,58.8,30.00,WNW,292,5.8,5.8,55,0.00,CLR,,0.00,700.0,WeatherDisplay:10.37,2013-09-30 20:25:00,
2013-09-30 16:30:00,76.3,57.9,30.00,West,259,5.0,6.0,53,0.00,SCT,,0.00,400.0,WeatherDisplay:10.37,2013-09-30 20:30:00,
2013-09-30 16:35:00,75.9,57.0,30.00,WNW,292,5.8,5.8,52,0.00,SCT,,0.00,600.0,WeatherDisplay:10.37,2013-09-30 20:35:00,
2013-09-30 16:40:00,76.6,57.2,30.00,SSW,202,6.9,6.9,51,0.00,CLR,,0.00,600.0,WeatherDisplay:10.37,2013-09-30 20:40:00,
2013-09-30 16:45:00,77.4,57.8,30.00,WSW,250,2.0,7.0,51,0.00,SCT,,0.00,400.0,WeatherDisplay:10.37,2013-09-30 20:45:00,
2013-09-30 16:50:00,75.9,55.9,30.00,WSW,248,6.9,6.9,50,0.00,BKN,,0.00,300.0,WeatherDisplay:10.37,2013-09-30 20:50:00,
2013-09-30 16:55:00,76.8,57.3,30.00,SSW,202,7.4,7.4,51,0.00,SCT,,0.00,300.0,WeatherDisplay:10.37,2013-09-30 20:55:00,
2013-09-30 17:00:00,76.2,56.2,30.00,West,269,6.0,8.0,50,0.00,BKN,,0.00,300.0,WeatherDisplay:10.37,2013-09-30 21:00:00,
2013-09-30 17:05:00,75.6,56.1,30.00,West,264,5.0,8.0,51,0.00,BKN,,0.00,300.0,WeatherDisplay:10.37,2013-09-30 21:05:00,
2013-09-30 17:10:00,75.4,56.0,30.00,WNW,292,7.8,7.8,51,0.00,BKN,,0.00,300.0,WeatherDisplay:10.37,2013-09-30 21:10:00,
2013-09-30 17:15:00,75.6,56.2,30.00,WSW,254,5.0,8.0,51,0.00,BKN,,0.00,300.0,WeatherDisplay:10.37,2013-09-30 21:15:00,
2013-09-30 17:20:00,76.3,57.4,30.00,WNW,292,6.9,6.9,52,0.00,BKN,,0.00,200.0,WeatherDisplay:10.37,2013-09-30 21:20:00,
2013-09-30 17:25:00,76.1,56.7,30.00,NNW,338,3.6,4.5,51,0.00,BKN,,0.00,100.0,WeatherDisplay:10.37,2013-09-30 21:25:00,
2013-09-30 17:30:00,74.7,56.4,30.00,SSW,202,6.2,6.2,53,0.00,BKN,,0.00,100.0,WeatherDisplay:10.37,2013-09-30 21:30:00,
2013-09-30 17:35:00,74.7,55.9,30.00,SW,236,5.0,7.0,52,0.00,CLR,,0.00,0.0,WeatherDisplay:10.37,2013-09-30 21:35:00,
2013-09-30 17:40:00,73.4,55.8,30.00,West,268,2.0,6.0,54,0.00,CLR,,0.00,0.0,WeatherDisplay:10.37,2013-09-30 21:40:00,
2013-09-30 17:45:00,72.3,56.2,30.00,WSW,248,3.5,3.5,57,0.00,CLR,,0.00,0.0,WeatherDisplay:10.37,2013-09-30 21:45:00,
2013-09-30 17:50:00,72.0,56.8,30.00,South,180,4.9,4.9,59,0.00,CLR,,0.00,0.0,WeatherDisplay:10.37,2013-09-30 21:50:00,
2013-09-30 17:55:00,72.0,57.8,30.00,SW,225,2.4,2.4,61,0.00,CLR,,0.00,0.0,WeatherDisplay:10.37,2013-09-30 21:55:00,
2013-09-30 18:00:00,72.0,57.8,30.00,WNW,292,4.6,4.6,61,0.00,CLR,,0.00,0.0,WeatherDisplay:10.37,2013-09-30 22:00:00,
2013-09-30 18:05:00,71.8,58.1,30.00,West,270,4.0,4.0,62,0.00,CLR,,0.00,0.0,WeatherDisplay:10.37,2013-09-30 22:05:00,
2013-09-30 18:10:00,71.2,58.0,30.00,WSW,248,4.6,4.6,63,0.00,CLR,,0.00,0.0,WeatherDisplay:10.37,2013-09-30 22:10:00,
2013-09-30 18:15:00,70.9,58.1,30.00,WNW,292,5.8,5.8,64,0.00,CLR,,0.00,0.0,WeatherDisplay:10.37,2013-09-30 22:15:00,
2013-09-30 18:20:00,70.7,58.4,30.00,WNW,292,3.8,3.8,65,0.00,CLR,,0.00,0.0,WeatherDisplay:10.37,2013-09-30 22:20:00,
2013-09-30 18:25:00,70.5,58.2,30.00,WNW,292,2.3,2.3,65,0.00,CLR,,0.00,0.0,WeatherDisplay:10.37,2013-09-30 22:25:00,
2013-09-30 18:30:00,70.3,58.4,30.00,West,270,4.6,4.6,66,0.00,CLR,,0.00,0.0,WeatherDisplay:10.37,2013-09-30 22:30:00,
2013-09-30 18:35:00,70.2,58.3,30.00,WNW,292,3.5,3.5,66,0.00,CLR,,0.00,0.0,WeatherDisplay:10.37,2013-09-30 22:35:00,
2013-09-30 18:40:00,70.0,58.5,30.00,WNW,292,2.3,2.3,67,0.00,CLR,,0.00,0.0,WeatherDisplay:10.37,2013-09-30 22:40:00,
2013-09-30 18:45:00,69.8,58.8,30.00,WNW,292,3.5,3.5,68,0.00,CLR,,0.00,0.0,WeatherDisplay:10.37,2013-09-30 22:45:00,
2013-09-30 18:50:00,69.6,58.6,30.00,WNW,292,4.6,4.6,68,0.00,CLR,,0.00,0.0,WeatherDisplay:10.37,2013-09-30 22:50:00,
2013-09-30 18:55:00,69.4,58.8,30.03,WNW,292,3.5,3.5,69,0.00,CLR,,0.00,0.0,WeatherDisplay:10.37,2013-09-30 22:55:00,
2013-09-30 19:00:00,69.3,58.7,30.03,WNW,292,2.6,2.6,69,0.00,CLR,,0.00,0.0,WeatherDisplay:10.37,2013-09-30 23:00:00,
2013-09-30 19:05:00,69.3,58.7,30.03,SSE,158,2.3,0.0,69,0.00,CLR,,0.00,0.0,WeatherDisplay:10.37,2013-09-30 23:05:00,
2013-09-30 19:10:00,68.7,58.9,30.03,WNW,292,2.4,2.4,71,0.00,CLR,,0.00,0.0,WeatherDisplay:10.37,2013-09-30 23:10:00,
2013-09-30 19:15:00,68.5,58.8,30.03,WSW,248,3.5,3.5,71,0.00,CLR,,0.00,0.0,WeatherDisplay:10.37,2013-09-30 23:15:00,
2013-09-30 19:20:00,68.4,59.0,30.03,WNW,292,4.6,4.6,72,0.00,CLR,,0.00,0.0,WeatherDisplay:10.37,2013-09-30 23:20:00,
2013-09-30 19:25:00,68.2,58.8,30.03,WSW,248,2.3,2.3,72,0.00,CLR,,0.00,0.0,WeatherDisplay:10.37,2013-09-30 23:25:00,
2013-09-30 19:30:00,68.0,58.6,30.03,SW,225,1.4,1.4,72,0.00,CLR,,0.00,0.0,WeatherDisplay:10.37,2013-09-30 23:30:00,
2013-09-30 19:36:00,68.0,58.6,30.03,WSW,248,2.3,2.3,72,0.00,CLR,,0.00,0.0,WeatherDisplay:10.37,2013-09-30 23:36:00,
2013-09-30 19:41:00,68.0,59.0,30.03,WNW,292,3.5,3.5,73,0.00,CLR,,0.00,0.0,WeatherDisplay:10.37,2013-09-30 23:41:00,
2013-09-30 19:46:00,67.8,58.8,30.03,WSW,248,3.5,3.5,73,0.00,CLR,,0.00,0.0,WeatherDisplay:10.37,2013-09-30 23:46:00,
2013-09-30 19:51:00,67.6,58.7,30.03,West,270,2.4,0.0,73,0.00,CLR,,0.00,0.0,WeatherDisplay:10.37,2013-09-30 23:51:00,
2013-09-30 19:56:00,67.5,58.5,30.03,WSW,248,2.3,2.3,73,0.00,CLR,,0.00,0.0,WeatherDisplay:10.37,2013-09-30 23:56:00,
2013-09-30 20:01:00,67.1,58.5,30.03,WSW,248,1.2,0.0,74,0.00,CLR,,0.00,0.0,WeatherDisplay:10.37,2013-10-01 00:01:00,
2013-09-30 20:06:00,66.7,58.6,30.03,South,180,0.0,0.0,75,0.00,CLR,,0.00,0.0,WeatherDisplay:10.37,2013-10-01 00:06:00,
2013-09-30 20:11:00,66.4,58.2,30.03,West,270,0.0,0.0,75,0.00,CLR,,0.00,0.0,WeatherDisplay:10.37,2013-10-01 00:11:00,
2013-09-30 20:16:00,66.2,58.8,30.03,SW,225,1.2,1.2,77,0.00,CLR,,0.00,0.0,WeatherDisplay:10.37,2013-10-01 00:16:00,
2013-09-30 20:21:00,66.0,59.0,30.03,SSW,202,2.3,2.3,78,0.00,CLR,,0.00,0.0,WeatherDisplay:10.37,2013-10-01 00:21:00,
2013-09-30 20:26:00,65.8,58.8,30.03,SSW,202,2.3,0.0,78,0.00,CLR,,0.00,0.0,WeatherDisplay:10.37,2013-10-01 00:26:00,
2013-09-30 20:31:00,65.7,58.6,30.03,South,180,0.0,0.0,78,0.00,CLR,,0.00,0.0,WeatherDisplay:10.37,2013-10-01 00:31:00,
2013-09-30 20:36:00,65.3,58.6,30.03,SSW,202,0.0,0.0,79,0.00,CLR,,0.00,0.0,WeatherDisplay:10.37,2013-10-01 00:36:00,
2013-09-30 20:41:00,65.1,58.4,30.03,SSW,202,1.2,0.0,79,0.00,CLR,,0.00,0.0,WeatherDisplay:10.37,2013-10-01 00:41:00,
2013-09-30 20:46:00,65.1,58.8,30.03,SSW,202,0.0,0.0,80,0.00,CLR,,0.00,0.0,WeatherDisplay:10.37,2013-10-01 00:46:00,
2013-09-30 20:51:00,65.1,58.8,30.03,SSE,158,0.0,0.0,80,0.00,CLR,,0.00,0.0,WeatherDisplay:10.37,2013-10-01 00:51:00,
2013-09-30 20:56:00,65.3,59.3,30.03,SSW,202,2.3,0.0,81,0.00,CLR,,0.00,0.0,WeatherDisplay:10.37,2013-10-01 00:56:00,
2013-09-30 21:01:00,65.3,59.3,30.03,SSW,202,0.0,0.0,81,0.00,CLR,,0.00,0.0,WeatherDisplay:10.37,2013-10-01 01:01:00,
2013-09-30 21:06:00,65.5,59.5,30.06,SSW,202,0.0,0.0,81,0.00,CLR,,0.00,0.0,WeatherDisplay:10.37,2013-10-01 01:06:00,
2013-09-30 21:12:00,65.3,59.3,30.06,SSE,158,0.0,0.0,81,0.00,CLR,,0.00,0.0,WeatherDisplay:10.37,2013-10-01 01:12:00,
2013-09-30 21:17:00,65.3,59.3,30.06,South,180,2.3,2.3,81,0.00,CLR,,0.00,0.0,WeatherDisplay:10.37,2013-10-01 01:17:00,
2013-09-30 21:22:00,65.1,59.1,30.03,SSE,158,1.2,0.0,81,0.00,CLR,,0.00,0.0,WeatherDisplay:10.37,2013-10-01 01:22:00,
2013-09-30 21:27:00,64.9,59.0,30.03,South,180,0.0,0.0,81,0.00,CLR,,0.00,0.0,WeatherDisplay:10.37,2013-10-01 01:27:00,
2013-09-30 21:32:00,64.8,58.8,30.03,SSE,158,0.0,0.0,81,0.00,CLR,,0.00,0.0,WeatherDisplay:10.37,2013-10-01 01:32:00,
2013-09-30 21:37:00,64.2,58.6,30.03,SSE,158,0.0,0.0,82,0.00,CLR,,0.00,0.0,WeatherDisplay:10.37,2013-10-01 01:37:00,
2013-09-30 21:42:00,63.9,58.6,30.03,SSE,158,0.0,0.0,83,0.00,CLR,,0.00,0.0,WeatherDisplay:10.37,2013-10-01 01:42:00,
2013-09-30 21:47:00,63.3,58.1,30.03,SSE,158,0.0,0.0,83,0.00,CLR,,0.00,0.0,WeatherDisplay:10.37,2013-10-01 01:47:00,
2013-09-30 21:52:00,63.1,58.2,30.03,SSE,158,0.0,0.0,84,0.00,CLR,,0.00,0.0,WeatherDisplay:10.37,2013-10-01 01:52:00,
2013-09-30 21:57:00,63.1,58.6,30.03,South,180,0.0,0.0,85,0.00,CLR,,0.00,0.0,WeatherDisplay:10.37,2013-10-01 01:57:00,
2013-09-30 22:02:00,63.3,58.7,30.03,SSE,158,1.2,1.2,85,0.00,CLR,,0.00,0.0,WeatherDisplay:10.37,2013-10-01 02:02:00,
2013-09-30 22:07:00,63.1,58.9,30.06,ESE,112,0.0,0.0,86,0.00,CLR,,0.00,0.0,WeatherDisplay:10.37,2013-10-01 02:07:00,
2013-09-30 22:12:00,62.2,58.0,30.06,ESE,112,0.0,0.0,86,0.00,CLR,,0.00,0.0,WeatherDisplay:10.37,2013-10-01 02:12:00,
2013-09-30 22:17:00,62.2,58.3,30.06,ESE,112,0.0,0.0,87,0.00,CLR,,0.00,0.0,WeatherDisplay:10.37,2013-10-01 02:17:00,
2013-09-30 22:22:00,61.7,58.1,30.03,ESE,112,0.0,0.0,88,0.00,CLR,,0.00,0.0,WeatherDisplay:10.37,2013-10-01 02:22:00,
2013-09-30 22:27:00,61.3,57.8,30.03,ESE,112,0.0,0.0,88,0.00,CLR,,0.00,0.0,WeatherDisplay:10.37,2013-10-01 02:27:00,
2013-09-30 22:32:00,61.5,58.6,30.03,ESE,112,2.3,2.3,90,0.00,CLR,,0.00,0.0,WeatherDisplay:10.37,2013-10-01 02:32:00,
2013-09-30 22:37:00,61.3,58.7,30.06,SSE,158,1.2,1.4,91,0.00,CLR,,0.00,0.0,WeatherDisplay:10.37,2013-10-01 02:37:00,
2013-09-30 22:42:00,61.3,58.7,30.06,SSE,158,0.0,0.0,91,0.00,CLR,,0.00,0.0,WeatherDisplay:10.37,2013-10-01 02:42:00,
2013-09-30 22:47:00,61.3,59.0,30.06,SSE,158,0.0,0.0,92,0.00,CLR,,0.00,0.0,WeatherDisplay:10.37,2013-10-01 02:47:00,
2013-09-30 22:52:00,61.2,58.8,30.06,SSE,158,0.0,0.0,92,0.00,CLR,,0.00,0.0,WeatherDisplay:10.37,2013-10-01 02:52:00,
2013-09-30 22:57:00,61.3,59.0,30.06,SSE,158,2.3,2.3,92,0.00,CLR,,0.00,0.0,WeatherDisplay:10.37,2013-10-01 02:57:00,
2013-09-30 23:02:00,61.7,59.7,30.06,SSE,158,1.6,1.6,93,0.00,CLR,,0.00,0.0,WeatherDisplay:10.37,2013-10-01 03:02:00,
2013-09-30 23:07:00,61.7,59.7,30.03,SSE,158,1.2,1.2,93,0.00,CLR,,0.00,0.0,WeatherDisplay:10.37,2013-10-01 03:07:00,
2013-09-30 23:13:00,61.9,59.5,30.03,SE,135,2.4,2.4,92,0.00,CLR,,0.00,0.0,WeatherDisplay:10.37,2013-10-01 03:13:00,
2013-09-30 23:18:00,61.9,59.5,30.03,SSE,158,2.0,2.0,92,0.00,CLR,,0.00,0.0,WeatherDisplay:10.37,2013-10-01 03:18:00,
2013-09-30 23:23:00,61.9,59.5,30.03,SSE,158,2.4,2.4,92,0.00,CLR,,0.00,0.0,WeatherDisplay:10.37,2013-10-01 03:23:00,
2013-09-30 23:28:00,61.7,59.4,30.03,SSE,158,1.2,0.0,92,0.00,CLR,,0.00,0.0,WeatherDisplay:10.37,2013-10-01 03:28:00,
2013-09-30 23:33:00,61.5,59.2,30.03,SE,135,1.4,1.4,92,0.00,CLR,,0.00,0.0,WeatherDisplay:10.37,2013-10-01 03:33:00,
2013-09-30 23:38:00,61.3,59.0,30.06,SE,135,1.2,0.0,92,0.00,CLR,,0.00,0.0,WeatherDisplay:10.37,2013-10-01 03:38:00,
2013-09-30 23:43:00,61.0,58.6,30.06,SSE,158,1.2,0.0,92,0.00,CLR,,0.00,0.0,WeatherDisplay:10.37,2013-10-01 03:43:00,
2013-09-30 23:48:00,60.8,58.5,30.06,SSE,158,0.0,0.0,92,0.00,CLR,,0.00,0.0,WeatherDisplay:10.37,2013-10-01 03:48:00,
2013-09-30 23:53:00,60.8,58.5,30.03,SSE,158,1.2,1.2,92,0.00,CLR,,0.00,0.0,WeatherDisplay:10.37,2013-10-01 03:53:00,
2013-09-30 23:58:00,60.6,58.6,30.03,ESE,112,1.2,1.2,93,0.00,CLR,,0.00,0.0,WeatherDisplay:10.37,2013-10-01 03:58:00,